This is the latest recevied weather packets stored in our database for station/object IW0REF-9. If no packets are shown the sender has not sent any weather packets the latest 10 day(s).
| Time | Temp. | Humidity | Pressure | Rain* | Wind** | Luminosity | Snow |
|---|---|---|---|---|---|---|---|
| 1777832309 | 21.11° C | 23% | 1001.4 hPa | - | - | - | - |
| 1777831408 | 22.22° C | 23% | 1001.4 hPa | - | - | - | - |
| 1777830508 | 22.22° C | 22% | 1001.3 hPa | - | - | - | - |
| 1777829606 | 24.44° C | 20% | 1001.3 hPa | - | - | - | - |
| 1777828705 | 27.22° C | 18% | 1001.2 hPa | - | - | - | - |
| 1777827805 | 30° C | 17% | 1001 hPa | - | - | - | - |
| 1777826904 | 30.56° C | 17% | 1001.1 hPa | - | - | - | - |
| 1777826003 | 30.56° C | 17% | 1001 hPa | - | - | - | - |
| 1777825103 | 30° C | 18% | 1001.2 hPa | - | - | - | - |
| 1777824202 | 31.67° C | 17% | 1001.2 hPa | - | - | - | - |
| 1777823302 | 32.22° C | 16% | 1001.3 hPa | - | - | - | - |
| 1777822400 | 32.22° C | 17% | 1001.6 hPa | - | - | - | - |
| 1777821499 | 32.22° C | 17% | 1001.8 hPa | - | - | - | - |
| 1777820598 | 31.11° C | 17% | 1001.9 hPa | - | - | - | - |
| 1777819698 | 31.67° C | 17% | 1002 hPa | - | - | - | - |
| 1777818798 | 30.56° C | 18% | 1002 hPa | - | - | - | - |
| 1777817897 | 30.56° C | 18% | 1002 hPa | - | - | - | - |
| 1777816996 | 28.33° C | 19% | 1002.2 hPa | - | - | - | - |
| 1777816094 | 30.56° C | 17% | 1002.3 hPa | - | - | - | - |
| 1777815194 | 29.44° C | 18% | 1002.4 hPa | - | - | - | - |
| 1777814293 | 29.44° C | 19% | 1002.4 hPa | - | - | - | - |
| 1777813392 | 29.44° C | 19% | 1002.4 hPa | - | - | - | - |
| 1777812491 | 28.33° C | 20% | 1002.6 hPa | - | - | - | - |
| 1777811590 | 28.33° C | 21% | 1002.8 hPa | - | - | - | - |
| 1777810690 | 27.22° C | 22% | 1002.8 hPa | - | - | - | - |
* Rain since midnight (hover to see other rain measurements)
** Current wind speed in m/s (hover to see current wind gust speed)